Regional Weather Roundup
Issued by NWS

Home | Current Version | Previous Version | Graphics & Text | Print | Product List | Glossary On
Versions: 1 2 3 4 5 6 7 8 9 10 11 12 13 14 15 16 17 18 19 20 21 22 23 24 25 26 27 28 29 30 31 32 33 34 35 36 37 38 39 40 41 42 43 44 45 46 47 48 49 50
000
ASUS43 KLMK 201902
RWRKY
KENTUCKY REGIONAL WEATHER ROUNDUP
NATIONAL WEATHER SERVICE LOUISVILLE KY
300 PM EDT SUN APR 20 2014

NOTE "FAIR" INDICATES FEW OR NO CLOUDS BELOW 12,000 FEET
WITH NO SIGNIFICANT WEATHER AND/OR OBSTRUCTIONS TO VISIBILITY.

KYZ001>023-026-027-061>063-070>075-202000-
WESTERN AND SOUTH CENTRAL KENTUCKY

CITY           SKY/WX    TMP DP  RH WIND       PRES   REMARKS
PADUCAH        PTSUNNY   79  43  27 MISG      30.16F
HENDERSON      PTSUNNY   75  39  27 W6        30.17F
OWENSBORO      MOSUNNY   75  34  22 VRB6      30.18F
HOPKINSVILLE   SUNNY     77  39  25 VRB2      30.17F
BOWLING GREEN  MOSUNNY   75  37  25 SW6       30.18F
GLASGOW        NOT AVBL
$$

KYZ024-025-028>034-038-045-046-053-202000-
NORTH CENTRAL KENTUCKY

CITY           SKY/WX    TMP DP  RH WIND       PRES   REMARKS
LOUISVILLE/SDF MOSUNNY   78  38  23 NE6       30.17F
LOUISVILLE/LOU SUNNY     78  39  24 SE10      30.18F
FORT KNOX      SUNNY     76  38  25 VRB1      30.17F
$$

KYZ035>037-039>044-047>052-055>060-089>105-202000-
NORTHEAST KENTUCKY

CITY           SKY/WX    TMP DP  RH WIND       PRES   REMARKS
LEXINGTON      SUNNY     74  37  26 MISG      30.20F
COVINGTON      MOSUNNY   74  34  23 SW7       30.20F
FRANKFORT      SUNNY     75  39  27 VRB6      30.19F
$$

KYZ054-064>069-076>088-106>120-202000-
SOUTHEAST KENTUCKY

CITY           SKY/WX    TMP DP  RH WIND       PRES   REMARKS
JACKSON        SUNNY     75  33  21 N5        30.20F
LONDON         SUNNY     75  38  26 VRB7      30.19F
SOMERSET       NOT AVBL
MIDDLESBORO    NOT AVBL
MONTICELLO     CLEAR     77  43  29 VRB3      30.20F
$$




USA.gov is the U.S. government's official web portal to all federal, state and local government web resources and services.